SCP
-0 0 0 0 0 0 0 0 0 0 -0 0 0 0 0 -0 -0 -0 -0 -0 -0 -0 -0 -0 -0 -0 0 0 0 0 0 0 0 0 0 0 0 0 -0 0 -0 -0 -0 0 0 0 0
-0 0 0 0 0 0 0 0 0 0 0 -0 0 -0 0 0 -0 -0 -0 -0 -0 -0 -0 -0 -0 -0 0 0 0 0 0 0 0 0 0 0 0 0 -0 0 0 0 0 0 0 0 0
-0 -0 0 0 0 0 0 0 0 0 0 0 0 0 -0 -0 -0 -0 -0 -0 -0 -0 -0 -0 -0 0 0 0 0 0 0 0 0 0 0 0 0 0 0 0 0 0 -0 -0 0 0 0
-0 -0 -0 -0 0 0 -0 0 0 0 0 0 0 0 0 -0 -0 0 -0 -0 -0 -0 -0 -0 -0 0 0 0 0 0 0 0 0 0 0 0 0 0 0 0 0 0 -0 -0 -0 0 0
-0 -0 -0 -0 -0 -0 -0 0 -0 0 0 0 0 0 0 0 -0 0 0 -0 -0 -0 -0 0 0 0 0 0 0 0 0 0 0 0 0 0 0 0 0 0 -0 0 -0 -0 -0 0 -0
-0 -0 -0 -0 -0 -0 -0 -0 0 0 0 0 0 0 0 0 0 0 0 0 0 0 0 0 0 0 0 0 0 0 0 0 0 0 0 0 0 0 0 0 0 0 -0 -0 -0 -0 0
-0 -0 -0 -0 -0 -0 -0 -0 0 0 0 0 0 0 0 0 0 0 0 0 0 0 0 0 0 0 0 0 0 0 0 0 0 0 0 0 0 -0 0 0 0 0 0 0 0 0 0
-0 -0 -0 -0 -0 -0 -0 -0 0 0 0 0 0 0 0 0 0 0 0 0 0 0 0 0 0 0 0 0 0 0 0 0 0 0 0 0 0 -0 -0 0 0 0 0 0 0 0 -0
-0 -0 -0 -0 -0 -0 -0 -0 -0 0 0 0 0 0 0 0 0 0 0 0 0 0 0 0 0 0 0 0 0 -0 0 0 0 0 0 0 0 0 0 0 0 0 0 0 0 0 0
-0 -0 -0 -0 -0 -0 -0 -0 0 0 0 0 0 0 0 0 0 0 0 0 0 0 0 0 0 0 0 0 0 0 0 0 0 0 0 0 0 0 0 0 0 0 0 0 0 0 0
-0 -0 -0 -0 -0 -0 -0 -0 -0 0 0 0 0 0 0 0 0 0 0 0 0 0 0 0 0 0 0 0 0 0 0 0 0 0 0 0 0 0 0 0 0 0 0 0 0 0 -0
-0 -0 -0 -0 -0 -0 -0 -0 -0 -0 -0 0 0 0 0 0 0 0 0 0 0 0 0 0 0 0 0 0 0 0 0 0 0 0 0 0 0 0 0 0 0 0 0 0 0 0 0
-0 -0 -0 -0 -0 -0 -0 -0 -0 -0 -0 0 0 0 0 0 0 0 0 0 0 0 0 0 0 0 -0 0 0 0 0 0 0 0 0 0 0 0 0 0 0 0 0 0 0 0 0
-0 -0 -0 -0 -0 -0 -0 -0 -0 -0 -0 -0 0 0 0 0 0 0 0 0 0 0 0 0 0 0 0 0 0 0 0 -0 -0 -0 0 0 0 0 0 0 0 0 0 0 0 0 0
-0 -0 -0 -0 -0 -0 -0 -0 -0 -0 -0 0 0 0 0 0 0 0 0 0 0 0 0 0 0 0 0 -0 -0 -0 -0 -0 -0 0 0 0 0 0 0 0 0 0 0 0 0 0 0
-0 -0 -0 -0 -0 -0 -0 -0 -0 -0 -0 0 0 0 0 0 0 0 0 0 0 0 0 0 0 0 -0 -0 -0 -0 -0 -0 -0 -0 -0 0 0 0 0 0 0 0 0 0 0 0 0
-0 -0 -0 -0 -0 -0 -0 -0 -0 -0 -0 0 0 0 0 0 0 0 0 0 0 0 0 0 0 0 0 0 -0 -0 -0 0 -0 -0 0 0 0 0 0 0 0 0 0 0 0 0 0
-0 -0 -0 -0 -0 -0 -0 -0 -0 -0 -0 0 0 0 0 0 0 0 0 0 0 0 0 0 0 0 0 0 0 0 -0 0 0 0 0 0 0 0 0 0 0 0 0 0 0 0 0
-0 -0 -0 -0 -0 -0 -0 -0 -0 -0 -0 0 0 0 0 0 0 0 0 0 0 0 0 0 0 0 0 0 0 0 0 0 0 0 0 0 0 0 0 -0 0 0 0 0 0 0 0
-0 -0 -0 -0 -0 -0 -0 -0 -0 -0 -0 0 0 0 0 0 0 0 0 0 0 0 0 0 0 0 0 0 0 0 0 0 0 0 0 0 0 0 0 0 0 0 0 0 0 0 0
-0 -0 -0 -0 -0 -0 -0 -0 -0 -0 -0 0 0 0 0 0 0 0 0 0 0 0 0 0 0 0 0 0 0 0 0 0 0 0 0 0 0 0 0 0 0 0 0 0 0 0 0
-0 -0 -0 -0 -0 -0 -0 -0 -0 -0 -0 0 0 0 0 0 0 0 0 0 0 0 0 0 0 0 0 0 0 0 0 0 0 0 0 0 0 0 0 0 0 0 0 0 0 0 0
-0 -0 -0 -0 -0 -0 -0 -0 -0 -0 -0 0 0 0 0 0 0 0 0 0 0 0 0 0 0 0 0 0 0 0 0 0 0 0 0 0 0 0 0 0 0 0 0 0 0 0 0
0 0 -0 -0 -0 -0 -0 -0 -0 -0 -0 0 0 0 0 0 0 0 0 0 0 0 0 0 0 0 0 0 0 0 0 0 0 0 0 0 0 0 0 0 0 0 0 0 0 0 0
0 0 0 -0 -0 -0 -0 -0 -0 -0 -0 0 0 0 0 0 0 0 0 0 0 0 0 0 0 0 0 0 0 0 0 0 0 0 0 0 0 0 0 0 0 0 0 0 0 0 0
0 0 0 -0 -0 -0 -0 -0 -0 -0 -0 0 0 0 0 0 0 0 0 0 0 0 0 0 0 0 0 0 0 0 0 0 0 0 0 0 0 0 0 0 0 0 0 0 0 0 0
-0 0 0 -0 -0 -0 -0 -0 -0 -0 -0 -0 0 0 0 0 0 0 0 0 0 0 0 0 0 0 0 0 0 0 0 0 0 0 0 0 0 0 0 0 0 0 0 0 0 0 0
-0 0 0 -0 -0 -0 -0 -0 -0 -0 -0 -0 0 0 0 0 0 0 0 0 0 0 0 0 0 0 0 0 0 0 0 0 0 0 0 0 0 0 0 0 0 0 0 0 0 0 0
0 0 0 0 0 0 -0 -0 -0 -0 -0 0 0 0 0 0 0 0 0 0 0 0 0 0 0 0 0 0 0 0 0 0 0 0 0 0 0 0 0 0 0 0 0 0 0 0 0
Wind_Speed_500mb
31 30 30 30 30 31 29 28 26 24 22 18 16 16 16 17 19 19 19 20 21 22 21 20 21 19 15 10 14 11 8 1 3 6 6 12 19 6 7 3 5 3 5 4 1 15 14
32 31 31 31 31 31 31 29 28 26 23 21 18 17 17 18 18 18 18 18 19 20 20 19 19 18 14 11 12 13 11 7 4 5 6 14 13 10 5 4 4 9 10 12 7 17 14
33 32 32 32 32 33 33 32 32 29 26 23 21 19 18 18 18 17 16 16 17 17 17 16 16 17 20 31 12 11 14 8 3 1 5 10 13 11 5 4 15 10 6 5 4 13 9
33 33 32 33 34 34 35 35 34 32 28 26 24 21 20 18 16 15 14 14 14 14 14 14 13 14 16 11 30 20 16 7 3 2 3 5 10 7 7 8 7 8 4 8 4 13 4
33 33 33 34 35 36 37 38 38 35 32 27 25 23 20 17 14 12 12 12 12 12 12 11 10 9 11 5 16 26 19 9 2 1 5 3 5 8 6 6 3 13 7 10 11 8 4
35 35 34 34 36 38 39 40 41 39 33 29 25 24 20 15 11 11 11 11 10 10 11 10 12 6 4 4 13 24 21 8 2 4 8 4 8 4 4 4 3 7 9 10 10 0 8
36 36 37 37 38 39 41 43 44 43 35 29 25 22 18 11 10 12 12 8 4 5 18 11 3 4 5 12 14 18 23 14 2 5 6 8 6 7 3 6 2 3 7 15 8 9 12
38 38 38 39 40 42 44 46 47 47 38 29 25 20 14 10 11 14 15 8 7 4 10 19 28 26 21 7 7 15 24 13 7 7 5 5 16 3 4 8 9 7 10 7 15 7 12
38 38 39 41 42 44 46 49 51 50 41 29 22 16 10 8 12 17 18 13 6 8 5 6 9 11 6 14 10 25 29 12 8 10 8 8 3 4 3 7 10 9 8 6 11 10 3
39 39 40 41 43 45 47 49 52 53 43 29 19 12 8 7 12 18 20 14 9 8 2 4 6 5 13 10 8 24 25 10 5 12 13 7 3 7 4 6 6 8 4 5 3 4 3
40 40 40 41 44 46 49 51 53 55 45 28 17 9 9 17 10 23 20 11 9 9 7 9 7 6 16 6 16 15 27 14 7 9 8 6 7 5 10 5 12 1 5 2 3 5 4
41 41 42 42 45 47 49 52 54 55 45 26 13 8 12 21 21 23 15 12 9 5 6 10 9 12 12 2 4 10 10 11 4 7 5 10 2 7 6 4 9 12 3 6 5 1 7
43 42 42 43 45 47 50 53 55 55 42 21 9 7 14 22 26 16 13 20 4 5 1 12 9 12 14 10 7 4 15 16 9 6 3 3 7 4 8 7 7 6 6 5 6 6 3
44 44 44 44 44 46 49 53 56 55 36 15 6 8 15 25 28 15 25 4 7 2 6 4 8 17 14 11 4 6 15 15 4 3 1 3 9 4 8 9 5 7 7 7 5 4 5
45 44 44 44 44 45 48 51 56 52 27 8 2 9 16 29 26 17 10 5 5 7 1 9 10 18 7 7 5 8 14 16 15 24 8 8 4 3 1 3 5 11 6 5 9 2 6
48 47 44 44 43 45 47 50 55 47 21 4 3 12 17 30 22 14 3 6 7 7 5 6 9 6 17 13 14 10 12 5 8 17 19 4 3 3 7 6 21 2 15 5 2 8 6
50 50 47 44 44 45 46 49 54 43 19 4 11 9 12 29 20 6 6 8 10 14 13 9 8 9 7 11 12 10 10 5 6 8 17 9 4 5 5 11 3 5 6 8 4 3 4
51 50 49 45 44 44 45 47 51 40 20 3 5 5 24 19 5 3 5 6 7 9 2 8 3 7 9 11 9 8 12 3 3 15 15 5 3 4 7 3 1 4 6 1 8 8 0
52 50 50 47 45 44 43 44 48 38 21 3 8 11 15 6 5 4 5 7 8 7 6 4 3 2 4 8 8 5 5 5 5 2 9 14 2 6 7 7 5 6 6 6 3 2 10
52 50 50 48 45 44 43 43 46 39 20 4 5 6 4 5 5 2 2 3 7 8 6 0 4 5 7 7 10 7 6 5 6 8 13 5 7 5 5 3 4 5 3 3 4 7 2
54 50 49 48 45 43 42 41 42 41 16 3 3 3 5 6 6 5 2 4 7 4 5 6 7 6 8 8 6 7 4 6 8 6 7 2 4 2 1 5 4 0 8 6 12 11 13
54 52 48 47 46 43 41 40 39 41 14 10 4 3 5 5 2 6 4 6 5 2 6 2 9 4 4 8 2 13 12 5 4 6 5 2 6 4 7 5 2 7 11 8 11 9 18
52 53 50 47 45 42 39 37 37 35 30 13 11 8 3 2 5 6 6 2 2 3 15 10 14 13 22 10 9 13 9 13 7 3 5 4 12 8 6 3 4 13 8 9 4 6 7
51 52 51 47 44 41 36 33 33 35 33 34 27 5 3 4 4 2 2 4 3 1 5 7 11 7 5 9 13 10 9 8 8 12 5 10 10 2 5 3 10 7 7 4 5 2 6
50 50 51 47 43 39 35 30 27 25 26 22 32 12 6 3 2 2 7 4 4 10 9 10 11 8 9 7 4 4 3 1 8 13 3 2 7 6 6 9 5 10 13 10 7 3 7
48 49 49 46 43 39 33 28 25 21 20 17 19 24 6 2 3 3 3 6 3 4 4 7 11 8 6 7 4 7 7 3 4 2 8 9 6 9 7 8 9 4 10 7 8 9 21
46 48 48 46 42 38 34 28 23 20 18 17 12 20 7 4 2 4 2 3 4 4 4 2 6 4 8 4 4 6 6 3 5 5 4 5 4 17 10 11 3 4 6 13 8 5 23
45 45 45 44 42 38 33 29 24 19 17 14 11 13 14 8 11 6 3 1 3 4 2 2 4 2 4 4 6 6 6 5 4 1 3 6 9 7 6 8 14 4 10 7 6 12 17
43 42 42 42 41 38 33 28 24 19 16 14 10 13 14 11 10 9 13 12 4 1 4 3 3 3 4 6 3 5 5 5 3 5 3 5 4 1 6 3 4 2 3 15 10 18 10
Wind_Direction_500mb
16 15 12 10 6 2 3 1 359 353 349 341 327 310 293 283 278 274 271 267 265 266 269 272 275 281 290 277 254 247 303 66 85 134 69 21 35 48 68 64 140 269 324 227 257 168 174
12 11 10 6 4 2 358 356 353 349 346 339 331 318 302 287 277 274 270 266 264 265 268 269 273 274 271 258 250 244 260 188 163 129 80 40 22 23 81 58 43 321 311 278 251 178 175
9 9 7 5 3 360 357 355 351 345 340 335 329 320 307 292 279 272 268 264 262 264 265 267 270 269 258 247 237 196 177 169 235 210 100 40 23 15 23 78 339 326 344 328 153 167 191
8 7 6 3 1 359 356 353 349 343 337 330 326 319 311 298 279 270 265 264 261 261 262 264 265 267 252 238 236 207 187 203 274 197 131 50 20 18 39 347 18 20 44 336 57 175 173
7 7 5 3 0 358 355 352 348 343 337 329 323 318 312 299 277 261 254 253 252 252 251 255 261 241 259 226 205 195 205 193 112 188 139 70 48 45 31 22 88 30 326 340 335 217 157
8 7 6 3 360 357 355 353 348 344 337 327 320 316 311 296 264 239 231 232 238 241 237 242 244 273 248 115 164 188 191 198 156 156 133 109 56 46 74 331 27 354 331 325 284 241 179
11 8 5 3 0 357 355 354 349 345 337 328 318 313 306 282 242 219 206 186 209 255 226 208 197 249 157 27 174 193 205 212 208 92 167 39 251 249 206 108 164 144 277 300 257 257 222
10 7 5 3 1 357 355 353 351 346 339 329 318 311 297 259 230 204 192 197 202 156 298 245 246 257 265 286 149 169 169 158 153 136 126 174 238 214 190 134 214 214 245 296 294 348 220
5 3 2 1 360 357 355 352 350 346 340 332 320 308 277 244 208 191 188 195 178 296 280 274 234 241 183 168 178 171 167 150 123 137 172 192 114 137 225 210 235 207 274 256 267 347 4
358 358 357 356 355 355 353 352 349 348 344 335 320 297 245 207 184 180 183 200 250 240 323 172 209 180 177 152 122 157 169 154 139 190 170 235 168 204 147 313 215 268 259 225 250 239 268
351 351 351 351 350 351 351 350 350 347 343 333 315 273 221 174 177 163 175 209 157 153 150 155 157 180 166 162 134 180 186 190 169 158 199 124 188 174 322 198 188 354 86 48 133 157 239
349 347 347 348 348 348 348 348 349 347 342 332 308 250 207 185 160 159 177 180 148 223 151 161 142 162 153 155 106 124 157 181 150 179 222 254 194 235 227 146 192 140 109 74 93 135 237
350 348 346 346 346 345 346 346 347 347 341 331 298 224 189 172 163 159 163 151 199 221 86 157 158 166 167 164 200 129 170 184 214 207 300 277 196 230 202 187 125 172 215 263 197 174 87
349 349 348 347 345 345 345 346 346 346 342 328 265 198 176 166 161 151 151 178 218 171 195 121 119 129 175 151 161 137 155 192 180 145 331 277 199 195 158 228 194 177 247 258 295 177 115
351 349 349 349 347 345 346 346 348 347 344 340 162 176 171 175 166 150 156 211 254 204 140 150 124 153 136 172 187 179 185 197 210 196 221 184 234 289 244 162 216 153 194 61 117 59 212
354 352 351 350 349 348 349 349 350 352 350 326 160 136 151 168 166 156 157 262 261 228 304 190 162 178 172 166 179 194 177 170 187 200 211 186 240 57 117 148 56 279 133 183 165 179 170
354 355 355 353 352 350 352 353 354 359 4 29 135 117 137 148 147 156 216 249 273 266 230 198 178 135 140 162 209 182 179 134 189 152 182 163 229 121 246 27 41 153 146 70 104 296 197
354 356 357 355 354 353 355 357 357 3 10 88 115 100 143 147 150 24 209 230 304 282 154 238 151 118 144 150 149 185 195 278 1 163 158 172 153 96 76 71 342 36 85 275 264 189 222
356 356 358 357 356 356 358 0 360 3 6 102 103 101 155 125 178 192 270 275 271 305 332 360 140 69 74 120 122 135 134 5 8 156 158 172 59 132 145 173 135 57 56 90 78 320 193
358 356 357 358 358 358 360 3 2 2 11 109 135 124 167 211 126 128 279 295 291 278 255 305 102 119 124 90 49 125 123 38 56 88 100 73 102 267 265 85 99 169 158 89 290 268 163
358 356 356 359 359 359 1 5 8 5 16 59 70 98 163 181 196 200 288 310 294 305 343 14 104 75 118 111 100 119 144 146 90 144 61 70 118 114 104 117 149 215 281 262 250 263 247
358 358 357 358 360 360 2 5 13 15 22 41 79 108 119 103 139 176 170 220 263 122 323 302 124 69 68 116 52 175 155 188 145 95 88 55 131 165 210 163 86 271 239 273 246 238 251
356 358 358 358 359 0 1 5 9 24 37 52 43 64 91 51 139 187 194 213 162 173 53 61 113 104 77 76 76 89 81 88 71 162 130 154 150 169 256 30 295 259 274 260 215 229 267
350 354 356 356 357 359 360 3 7 13 26 36 27 35 350 111 201 192 274 232 31 236 128 32 43 65 93 118 108 85 75 92 94 64 46 149 130 154 262 197 252 64 61 214 171 220 236
346 348 352 353 354 355 357 359 3 5 9 15 24 30 22 95 341 132 31 29 85 82 77 81 51 78 115 86 68 30 351 343 72 44 348 39 146 131 233 215 344 196 217 206 221 135 166
340 343 347 350 350 351 353 354 354 357 360 358 8 19 27 327 69 318 346 16 87 58 76 90 55 94 113 74 100 183 246 310 258 201 62 105 92 234 160 218 230 107 158 179 179 252 173
334 336 340 344 346 347 347 348 348 347 350 353 342 5 5 324 254 13 24 41 105 91 96 5 0 60 55 94 134 191 207 191 240 239 192 142 140 218 193 232 257 171 161 160 219 51 158
325 329 332 337 340 341 342 342 341 339 340 342 322 335 359 312 285 247 229 174 116 77 113 120 162 87 81 146 197 172 207 165 236 254 245 215 191 178 151 218 244 108 144 228 78 106 137
321 323 326 331 334 335 336 337 334 331 330 330 323 316 314 278 264 261 229 221 243 124 88 105 86 136 159 109 190 139 163 177 194 221 134 217 293 301 245 50 4 296 43 120 116 129 131
Wind_Speed_850mb
31 30 30 30 30 31 29 28 26 24 22 18 16 16 16 17 19 19 19 20 21 22 21 20 21 19 15 10 14 11 8 1 3 6 6 12 19 6 7 3 5 3 5 4 1 15 14
32 31 31 31 31 31 31 29 28 26 23 21 18 17 17 18 18 18 18 18 19 20 20 19 19 18 14 11 12 13 11 7 4 5 6 14 13 10 5 4 4 9 10 12 7 17 14
33 32 32 32 32 33 33 32 32 29 26 23 21 19 18 18 18 17 16 16 17 17 17 16 16 17 20 31 12 11 14 8 3 1 5 10 13 11 5 4 15 10 6 5 4 13 9
33 33 32 33 34 34 35 35 34 32 28 26 24 21 20 18 16 15 14 14 14 14 14 14 13 14 16 11 30 20 16 7 3 2 3 5 10 7 7 8 7 8 4 8 4 13 4
33 33 33 34 35 36 37 38 38 35 32 27 25 23 20 17 14 12 12 12 12 12 12 11 10 9 11 5 16 26 19 9 2 1 5 3 5 8 6 6 3 13 7 10 11 8 4
35 35 34 34 36 38 39 40 41 39 33 29 25 24 20 15 11 11 11 11 10 10 11 10 12 6 4 4 13 24 21 8 2 4 8 4 8 4 4 4 3 7 9 10 10 0 8
36 36 37 37 38 39 41 43 44 43 35 29 25 22 18 11 10 12 12 8 4 5 18 11 3 4 5 12 14 18 23 14 2 5 6 8 6 7 3 6 2 3 7 15 8 9 12
38 38 38 39 40 42 44 46 47 47 38 29 25 20 14 10 11 14 15 8 7 4 10 19 28 26 21 7 7 15 24 13 7 7 5 5 16 3 4 8 9 7 10 7 15 7 12
38 38 39 41 42 44 46 49 51 50 41 29 22 16 10 8 12 17 18 13 6 8 5 6 9 11 6 14 10 25 29 12 8 10 8 8 3 4 3 7 10 9 8 6 11 10 3
39 39 40 41 43 45 47 49 52 53 43 29 19 12 8 7 12 18 20 14 9 8 2 4 6 5 13 10 8 24 25 10 5 12 13 7 3 7 4 6 6 8 4 5 3 4 3
40 40 40 41 44 46 49 51 53 55 45 28 17 9 9 17 10 23 20 11 9 9 7 9 7 6 16 6 16 15 27 14 7 9 8 6 7 5 10 5 12 1 5 2 3 5 4
41 41 42 42 45 47 49 52 54 55 45 26 13 8 12 21 21 23 15 12 9 5 6 10 9 12 12 2 4 10 10 11 4 7 5 10 2 7 6 4 9 12 3 6 5 1 7
43 42 42 43 45 47 50 53 55 55 42 21 9 7 14 22 26 16 13 20 4 5 1 12 9 12 14 10 7 4 15 16 9 6 3 3 7 4 8 7 7 6 6 5 6 6 3
44 44 44 44 44 46 49 53 56 55 36 15 6 8 15 25 28 15 25 4 7 2 6 4 8 17 14 11 4 6 15 15 4 3 1 3 9 4 8 9 5 7 7 7 5 4 5
45 44 44 44 44 45 48 51 56 52 27 8 2 9 16 29 26 17 10 5 5 7 1 9 10 18 7 7 5 8 14 16 15 24 8 8 4 3 1 3 5 11 6 5 9 2 6
48 47 44 44 43 45 47 50 55 47 21 4 3 12 17 30 22 14 3 6 7 7 5 6 9 6 17 13 14 10 12 5 8 17 19 4 3 3 7 6 21 2 15 5 2 8 6
50 50 47 44 44 45 46 49 54 43 19 4 11 9 12 29 20 6 6 8 10 14 13 9 8 9 7 11 12 10 10 5 6 8 17 9 4 5 5 11 3 5 6 8 4 3 4
51 50 49 45 44 44 45 47 51 40 20 3 5 5 24 19 5 3 5 6 7 9 2 8 3 7 9 11 9 8 12 3 3 15 15 5 3 4 7 3 1 4 6 1 8 8 0
52 50 50 47 45 44 43 44 48 38 21 3 8 11 15 6 5 4 5 7 8 7 6 4 3 2 4 8 8 5 5 5 5 2 9 14 2 6 7 7 5 6 6 6 3 2 10
52 50 50 48 45 44 43 43 46 39 20 4 5 6 4 5 5 2 2 3 7 8 6 0 4 5 7 7 10 7 6 5 6 8 13 5 7 5 5 3 4 5 3 3 4 7 2
54 50 49 48 45 43 42 41 42 41 16 3 3 3 5 6 6 5 2 4 7 4 5 6 7 6 8 8 6 7 4 6 8 6 7 2 4 2 1 5 4 0 8 6 12 11 13
54 52 48 47 46 43 41 40 39 41 14 10 4 3 5 5 2 6 4 6 5 2 6 2 9 4 4 8 2 13 12 5 4 6 5 2 6 4 7 5 2 7 11 8 11 9 18
52 53 50 47 45 42 39 37 37 35 30 13 11 8 3 2 5 6 6 2 2 3 15 10 14 13 22 10 9 13 9 13 7 3 5 4 12 8 6 3 4 13 8 9 4 6 7
51 52 51 47 44 41 36 33 33 35 33 34 27 5 3 4 4 2 2 4 3 1 5 7 11 7 5 9 13 10 9 8 8 12 5 10 10 2 5 3 10 7 7 4 5 2 6
50 50 51 47 43 39 35 30 27 25 26 22 32 12 6 3 2 2 7 4 4 10 9 10 11 8 9 7 4 4 3 1 8 13 3 2 7 6 6 9 5 10 13 10 7 3 7
48 49 49 46 43 39 33 28 25 21 20 17 19 24 6 2 3 3 3 6 3 4 4 7 11 8 6 7 4 7 7 3 4 2 8 9 6 9 7 8 9 4 10 7 8 9 21
46 48 48 46 42 38 34 28 23 20 18 17 12 20 7 4 2 4 2 3 4 4 4 2 6 4 8 4 4 6 6 3 5 5 4 5 4 17 10 11 3 4 6 13 8 5 23
45 45 45 44 42 38 33 29 24 19 17 14 11 13 14 8 11 6 3 1 3 4 2 2 4 2 4 4 6 6 6 5 4 1 3 6 9 7 6 8 14 4 10 7 6 12 17
43 42 42 42 41 38 33 28 24 19 16 14 10 13 14 11 10 9 13 12 4 1 4 3 3 3 4 6 3 5 5 5 3 5 3 5 4 1 6 3 4 2 3 15 10 18 10
Wind_Direction_850mb
16 15 12 10 6 2 3 1 359 353 349 341 327 310 293 283 278 274 271 267 265 266 269 272 275 281 290 277 254 247 303 66 85 134 69 21 35 48 68 64 140 269 324 227 257 168 174
12 11 10 6 4 2 358 356 353 349 346 339 331 318 302 287 277 274 270 266 264 265 268 269 273 274 271 258 250 244 260 188 163 129 80 40 22 23 81 58 43 321 311 278 251 178 175
9 9 7 5 3 360 357 355 351 345 340 335 329 320 307 292 279 272 268 264 262 264 265 267 270 269 258 247 237 196 177 169 235 210 100 40 23 15 23 78 339 326 344 328 153 167 191
8 7 6 3 1 359 356 353 349 343 337 330 326 319 311 298 279 270 265 264 261 261 262 264 265 267 252 238 236 207 187 203 274 197 131 50 20 18 39 347 18 20 44 336 57 175 173
7 7 5 3 0 358 355 352 348 343 337 329 323 318 312 299 277 261 254 253 252 252 251 255 261 241 259 226 205 195 205 193 112 188 139 70 48 45 31 22 88 30 326 340 335 217 157
8 7 6 3 360 357 355 353 348 344 337 327 320 316 311 296 264 239 231 232 238 241 237 242 244 273 248 115 164 188 191 198 156 156 133 109 56 46 74 331 27 354 331 325 284 241 179
11 8 5 3 0 357 355 354 349 345 337 328 318 313 306 282 242 219 206 186 209 255 226 208 197 249 157 27 174 193 205 212 208 92 167 39 251 249 206 108 164 144 277 300 257 257 222
10 7 5 3 1 357 355 353 351 346 339 329 318 311 297 259 230 204 192 197 202 156 298 245 246 257 265 286 149 169 169 158 153 136 126 174 238 214 190 134 214 214 245 296 294 348 220
5 3 2 1 360 357 355 352 350 346 340 332 320 308 277 244 208 191 188 195 178 296 280 274 234 241 183 168 178 171 167 150 123 137 172 192 114 137 225 210 235 207 274 256 267 347 4
358 358 357 356 355 355 353 352 349 348 344 335 320 297 245 207 184 180 183 200 250 240 323 172 209 180 177 152 122 157 169 154 139 190 170 235 168 204 147 313 215 268 259 225 250 239 268
351 351 351 351 350 351 351 350 350 347 343 333 315 273 221 174 177 163 175 209 157 153 150 155 157 180 166 162 134 180 186 190 169 158 199 124 188 174 322 198 188 354 86 48 133 157 239
349 347 347 348 348 348 348 348 349 347 342 332 308 250 207 185 160 159 177 180 148 223 151 161 142 162 153 155 106 124 157 181 150 179 222 254 194 235 227 146 192 140 109 74 93 135 237
350 348 346 346 346 345 346 346 347 347 341 331 298 224 189 172 163 159 163 151 199 221 86 157 158 166 167 164 200 129 170 184 214 207 300 277 196 230 202 187 125 172 215 263 197 174 87
349 349 348 347 345 345 345 346 346 346 342 328 265 198 176 166 161 151 151 178 218 171 195 121 119 129 175 151 161 137 155 192 180 145 331 277 199 195 158 228 194 177 247 258 295 177 115
351 349 349 349 347 345 346 346 348 347 344 340 162 176 171 175 166 150 156 211 254 204 140 150 124 153 136 172 187 179 185 197 210 196 221 184 234 289 244 162 216 153 194 61 117 59 212
354 352 351 350 349 348 349 349 350 352 350 326 160 136 151 168 166 156 157 262 261 228 304 190 162 178 172 166 179 194 177 170 187 200 211 186 240 57 117 148 56 279 133 183 165 179 170
354 355 355 353 352 350 352 353 354 359 4 29 135 117 137 148 147 156 216 249 273 266 230 198 178 135 140 162 209 182 179 134 189 152 182 163 229 121 246 27 41 153 146 70 104 296 197
354 356 357 355 354 353 355 357 357 3 10 88 115 100 143 147 150 24 209 230 304 282 154 238 151 118 144 150 149 185 195 278 1 163 158 172 153 96 76 71 342 36 85 275 264 189 222
356 356 358 357 356 356 358 0 360 3 6 102 103 101 155 125 178 192 270 275 271 305 332 360 140 69 74 120 122 135 134 5 8 156 158 172 59 132 145 173 135 57 56 90 78 320 193
358 356 357 358 358 358 360 3 2 2 11 109 135 124 167 211 126 128 279 295 291 278 255 305 102 119 124 90 49 125 123 38 56 88 100 73 102 267 265 85 99 169 158 89 290 268 163
358 356 356 359 359 359 1 5 8 5 16 59 70 98 163 181 196 200 288 310 294 305 343 14 104 75 118 111 100 119 144 146 90 144 61 70 118 114 104 117 149 215 281 262 250 263 247
358 358 357 358 360 360 2 5 13 15 22 41 79 108 119 103 139 176 170 220 263 122 323 302 124 69 68 116 52 175 155 188 145 95 88 55 131 165 210 163 86 271 239 273 246 238 251
356 358 358 358 359 0 1 5 9 24 37 52 43 64 91 51 139 187 194 213 162 173 53 61 113 104 77 76 76 89 81 88 71 162 130 154 150 169 256 30 295 259 274 260 215 229 267
350 354 356 356 357 359 360 3 7 13 26 36 27 35 350 111 201 192 274 232 31 236 128 32 43 65 93 118 108 85 75 92 94 64 46 149 130 154 262 197 252 64 61 214 171 220 236
346 348 352 353 354 355 357 359 3 5 9 15 24 30 22 95 341 132 31 29 85 82 77 81 51 78 115 86 68 30 351 343 72 44 348 39 146 131 233 215 344 196 217 206 221 135 166
340 343 347 350 350 351 353 354 354 357 360 358 8 19 27 327 69 318 346 16 87 58 76 90 55 94 113 74 100 183 246 310 258 201 62 105 92 234 160 218 230 107 158 179 179 252 173
334 336 340 344 346 347 347 348 348 347 350 353 342 5 5 324 254 13 24 41 105 91 96 5 0 60 55 94 134 191 207 191 240 239 192 142 140 218 193 232 257 171 161 160 219 51 158
325 329 332 337 340 341 342 342 341 339 340 342 322 335 359 312 285 247 229 174 116 77 113 120 162 87 81 146 197 172 207 165 236 254 245 215 191 178 151 218 244 108 144 228 78 106 137
321 323 326 331 334 335 336 337 334 331 330 330 323 316 314 278 264 261 229 221 243 124 88 105 86 136 159 109 190 139 163 177 194 221 134 217 293 301 245 50 4 296 43 120 116 129 131